This is the latest recevied weather packets stored in our database for station/object KE5YIM-13. If no packets are shown the sender has not sent any weather packets the latest 10 day(s).
| Time | Temp. | Humidity | Pressure | Rain* | Wind** | Luminosity | Snow |
|---|---|---|---|---|---|---|---|
| 1777683996 | 11.67° C | 71% | 1013.1 hPa | 0 mm | - | 0 W/m² | - |
| 1777683692 | 11.67° C | 71% | 1013.2 hPa | 0 mm | - | 0 W/m² | - |
| 1777683390 | 11.67° C | 71% | 1013.2 hPa | 0 mm | - | 0 W/m² | - |
| 1777683087 | 11.67° C | 70% | 1013.3 hPa | 0 mm | - | 0 W/m² | - |
| 1777682782 | 11.67° C | 70% | 1012.9 hPa | 0 mm | - | 0 W/m² | - |
| 1777682479 | 11.67° C | 70% | 1012.9 hPa | 0 mm | - | 0 W/m² | - |
| 1777682178 | 11.67° C | 71% | 1013.1 hPa | 0 mm | - | 0 W/m² | - |
| 1777681874 | 11.67° C | 70% | 1012.9 hPa | 0 mm | - | 0 W/m² | - |
| 1777681570 | 11.67° C | 70% | 1013 hPa | 0 mm | - | 0 W/m² | - |
| 1777681268 | 11.67° C | 70% | 1012.7 hPa | 0 mm | - | 0 W/m² | - |
| 1777680966 | 11.67° C | 69% | 1012.6 hPa | 0 mm | - | 0 W/m² | - |
| 1777680662 | 11.67° C | 69% | 1012.5 hPa | 0 mm | - | 0 W/m² | - |
| 1777680361 | 11.67° C | 68% | 1012.5 hPa | 0 mm | - | 0 W/m² | - |
| 1777680058 | 11.67° C | 68% | 1012.4 hPa | 0 mm | - | 1 W/m² | - |
| 1777679753 | 12.22° C | 68% | 1012.4 hPa | 0 mm | - | 1 W/m² | - |
| 1777679449 | 12.22° C | 67% | 1012.3 hPa | 0 mm | - | 2 W/m² | - |
| 1777679145 | 12.22° C | 66% | 1012.2 hPa | 0 mm | - | 4 W/m² | - |
| 1777678843 | 12.78° C | 65% | 1012.1 hPa | 0 mm | - | 6 W/m² | - |
| 1777678541 | 12.78° C | 65% | 1012.2 hPa | 0 mm | - | 9 W/m² | - |
| 1777678238 | 12.78° C | 64% | 1012 hPa | 0 mm | - | 11 W/m² | - |
| 1777677934 | 12.78° C | 63% | 1011.7 hPa | 0 mm | - | 13 W/m² | - |
| 1777677631 | 13.33° C | 61% | 1011.9 hPa | 0 mm | - | 17 W/m² | - |
| 1777677329 | 13.33° C | 61% | 1011.8 hPa | 0 mm | - | 22 W/m² | - |
| 1777677027 | 13.89° C | 58% | 1011.7 hPa | 0 mm | - | 26 W/m² | - |
| 1777676726 | 13.89° C | 58% | 1011.6 hPa | 0 mm | - | 29 W/m² | - |
* Rain latest hour (hover to see other rain measurements)
** Current wind speed in m/s (hover to see current wind gust speed)